Tracking 31027 objects as of 19-Jul-2025
HD Live streaming from Space Station
objects crossing your sky now

STARLINK-5283

Track STARLINK-5283 now!
10-day predictions
STARLINK-5283 is classified as:


NORAD ID: 55396
Int'l Code: 2023-014F
Perigee: 576.9 km
Apogee: 581.5 km
Inclination: 70.0 °
Period: 96.1 minutes
Semi major axis: 6950 km
RCS: Unknown
Launch date: January 31, 2023
Source: United States (US)
Launch site: AIR FORCE WESTERN TEST RANGE (AFWTR)
Your satellite tracking list
SL-8 DEB
Track 1 satellite(s)




NASA's NSSDC Master Catalog

Two Line Element Set (TLE):
1 55396U 23014F   25199.52773737  .00000736  00000-0  69490-4 0  9993
2 55396  70.0003 294.7278 0003264 269.5133  90.5652 14.98332338136981
Source of the keplerian elements: AFSPC